Regional Weather Roundup
Issued by NWS

Home | Current Version | Previous Version | Graphics & Text | Print | Product List | Glossary On
Versions: 1 2 3 4 5 6 7 8 9 10 11 12 13 14 15 16 17 18 19 20 21 22 23 24 25 26 27 28 29 30 31 32 33 34 35 36 37 38 39 40 41 42 43 44 45 46 47 48 49 50
000
ASUS43 KTOP 310708
RWRKS

WEATHER ROUNDUP FOR KANSAS
NATIONAL WEATHER SERVICE GOODLAND KS
200 AM CDT THU JUL 31 2014

NOTE:  "FAIR" INDICATES FEW OR NO CLOUDS BELOW 12,000 FEET WITH NO
SIGNIFICANT WEATHER AND/OR OBSTRUCTIONS TO VISIBILITY.

KSZ001>006-013>018-027>032-041>047-310800-
NORTHWEST KANSAS

CITY           SKY/WX    TMP DP  RH WIND       PRES   REMARKS
GOODLAND       CLEAR     58  56  93 W7        30.26F
HAYS           PTCLDY    61  54  77 W5        30.17F
HILL CITY      PTCLDY    60  54  80 CALM      30.18F
RUSSELL        PTCLDY    62  59  90 W8        30.15F
$$

KSZ061>065-074>080-084>089-310800-
SOUTHWEST KANSAS

CITY           SKY/WX    TMP DP  RH WIND       PRES   REMARKS
DODGE CITY     PTCLDY    58  55  90 W5        30.21S
ELKHART          N/A     59  56  90 W3          N/A
GARDEN CITY    CLEAR     58  56  93 W5        30.22F
GREAT BEND     CLEAR     61  55  82 W5        30.16S
LIBERAL        CLEAR     57  54  88 NW7       30.25S
PRATT          CLEAR     57  55  94 N5        30.17S
$$

KSZ066>073-081>083-090>101-310800-
SOUTHEAST KANSAS

CITY           SKY/WX    TMP DP  RH WIND       PRES   REMARKS
CHANUTE        FOG       63  62  97 CALM      30.10F VSB 1/4
COFFEYVILLE    CLOUDY    67  65  93 N6        30.08F
HUTCHINSON     PTCLDY    57  55  93 NW6       30.14S FOG
MEDICINE LODGE   N/A     60  59  96 N6        30.12F
NEWTON         CLEAR     63  55  77 NE5       30.16S
PARSONS        CLEAR     65  63  93 CALM      30.10F FOG
WICHITA INTL   PTCLDY    63  61  93 N3        30.13S
WICHITA JABRA  PTCLDY    62  62 100 N6        30.12F
WICHITA MCCONL CLEAR     62  62 100 N5        30.13S
WINFIELD       CLOUDY    65  65 100 N7        30.11F
$$

KSZ007>012-019>026-033>040-048>060-102>105-310800-
NORTHEAST KANSAS

CITY           SKY/WX    TMP DP  RH WIND       PRES   REMARKS
CONCORDIA      MOCLDY    61  55  81 CALM      30.13S
EMPORIA        PTCLDY    60  60 100 NW6       30.11F FOG
LAWRENCE       CLEAR     57  55  93 NW5       30.10F
MANHATTAN      PTCLDY    59  57  93 CALM      30.12F
MARYSVILLE     PTCLDY    57  54  88 CALM      30.12F
OLATHE IND     CLEAR     63  60  90 CALM      30.11S
OLATHE EXE     CLEAR     64  60  87 CALM      30.09F
SALINA         PTCLDY    62  56  80 CALM      30.14S
TOPEKA BILLARD CLEAR     60  58  92 CALM      30.11S
TOPEKA FORBES  CLEAR     58  55  90 CALM      30.11S
$$



USA.gov is the U.S. government's official web portal to all federal, state and local government web resources and services.